Regional Weather Roundup
Issued by NWS Albany, NY

Home | Current Version | Previous Version | Text Only | Print | Product List | Glossary On
Versions: 1 2 3 4 5 6 7 8 9 10 11 12 13 14 15 16 17 18 19 20 21 22 23 24 25 26 27 28 29 30 31 32 33 34 35 36 37 38 39 40 41 42 43 44 45 46 47
000
ASUS41 KALY 010310
RWRALY

NEW YORK STATE HOURLY WEATHER ROUNDUP
NATIONAL WEATHER SERVICE ALBANY NY
1000 PM EST SAT FEB 28 2015

NOTE: "FAIR" INDICATES FEW OR NO CLOUDS BELOW 12,000 FEET WITH NO
SIGNIFICANT WEATHER AND/OR NO OBSTRUCTIONS TO VISIBILITY.

NYZ032-033-038>043-046>054-057>066-NYZ062>081-010400-
EAST


CITY           SKY/WX    TMP DP  RH WIND       PRES   REMARKS
ALBANY         CLEAR     15   0  51 W6        30.73S WCI   6
GLENS FALLS    CLEAR      3  -5  69 CALM      30.70R
POUGHKEEPSIE   CLEAR      8  -1  66 CALM      30.74S
NEWBURGH       CLEAR      9   0  66 CALM      30.72S
MONTGOMERY     CLEAR      6  -2  69 CALM      30.71S
WHITE PLAINS   CLEAR     14   3  61 NW5       30.71S WCI   6
ISLIP          PTCLDY    19   6  57 CALM      30.74S
NEW YORK CITY  PTCLDY    27   3  35 W5        30.75S WCI  22
CENTRAL PARK   CLEAR     27   1  32 W6        30.76F WCI  20
$$

NYZ005>009-017-018-044>046-055-056-010400-
CENTRAL


CITY           SKY/WX    TMP DP  RH WIND       PRES   REMARKS
FULTON         CLEAR      4  -3  73 CALM      30.69F
SYRACUSE       CLEAR      7   0  72 SE5       30.69F WCI  -2
ROME           PTCLDY     1  -4  79 CALM      30.73S
ELMIRA         FAIR       5  -4  66 CALM      30.67R
BINGHAMTON     CLEAR     15  -4  42 SE3       30.60F
MONTICELLO     CLEAR     10  -2  56 CALM      30.64F
$$

NYZ026>034-041>043-010400-
NORTH


CITY           SKY/WX    TMP DP  RH WIND       PRES   REMARKS
WATERTOWN      CLEAR     10   3  73 S3        30.70S
FORT DRUM      NOT AVBL
MASSENA        CLEAR     12   4  70 SW9       30.68S WCI   0
SARANAC LAKE   CLEAR     -6 -10  83 CALM      30.56R
PLATTSBURGH    CLEAR      5   0  79 W3        30.68R
$$

NYZ001>004-010>016-019>021-010400-
WEST


CITY           SKY/WX    TMP DP  RH WIND       PRES   REMARKS
NIAGARA FALLS  PTCLDY     3  -2  79 SE3       30.65S
BUFFALO        PTCLDY     7   0  73 SE6       30.64F WCI  -3
DUNKIRK        PTCLDY    -2  -6  83 CALM      30.63F
JAMESTOWN      FAIR      10  -2  56 SE3       30.53F
WELLSVILLE     CLEAR     14  -8  37 SE5       30.54F WCI   6
ROCHESTER      PTCLDY     6  -1  73 CALM      30.67F
PENN YAN       CLEAR      1  -6  72 SW5       30.64F WCI  -9
$$

             KEY
       WCI = WIND CHILL INDEX
       VSB = VISIBILITY
       HX  = HEAT INDEX
$$



USA.gov is the U.S. government's official web portal to all federal, state and local government web resources and services.